Weather History for KGLR - February, 2013

Change the Weather History Date:

Sunday, February 17, 2013

  Actual Average Record
Temperature  
Mean Temperature 1 °F -  
Max Temperature 16 °F 28 °F 55 °F (1981)
Min Temperature -14 °F 8 °F -37 °F (1979)
Degree Days  
Heating Degree Days 64    
Moisture  
Dew Point 0 °F    
Average Humidity 79    
Maximum Humidity 95    
Minimum Humidity 67    
Precipitation  
Precipitation 0.00 in - - ()
Sea Level Pressure  
Sea Level Pressure 30.15 in    
Wind  
Wind Speed 2 mph (SW)    
Max Wind Speed 10 mph    
Max Gust Speed -    
Visibility 10 miles    
Events Snow    
Averages and records for this station are not official NWS values.
T = Trace of Precipitation, MM = Missing Value Source: NWS Daily Summary

Daily Weather History Graph

Daily Weather History Graph

Search for Another Location

Airport or City:

Trip Planner

Search our weather history database for the weather conditions in past years. The results will help you decide how hot, cold, wet, or windy it might be!

Date:

Astronomy

Feb. 17, 2013 Rise Set
Actual Time 7:36 AM EST 6:10 PM EST
Civil Twilight 7:06 AM EST 6:40 PM EST
Nautical Twilight 6:31 AM EST 7:14 PM EST
Astronomical Twilight 5:58 AM EST 7:48 PM EST
Moon 11:07 AM EST (2/17) 1:25 AM EST (2/17)
Length of Visible Light 11h 33m
Length of Day
10h 33m
Waxing Crescent, 49% of the Moon is Illuminated
Feb 17
Waxing Crescent
Feb 17
First Quarter
Feb 25
Full
Mar 4
Last Quarter
Mar 11
New

Hourly Weather History & Observations

Time (EST) Temp. Windchill Dew Point Humidity Pressure Visibility Wind Dir Wind Speed Gust Speed Precip Events Conditions
12:53 AM -13.0 °F - -16.1 °F 86% 30.15 in 10.0 mi Calm Calm - N/A   Clear
1:53 AM -9.0 °F - -13.0 °F 83% 30.14 in 10.0 mi Calm Calm - N/A   Partly Cloudy
2:53 AM -11.0 °F - -14.1 °F 86% 30.15 in 10.0 mi Calm Calm - N/A   Clear
3:53 AM -14.1 °F - -17.0 °F 87% 30.15 in 10.0 mi Calm Calm - N/A   Clear
4:53 AM -14.1 °F - -18.0 °F 82% 30.16 in 10.0 mi Calm Calm - N/A   Mostly Cloudy
5:53 AM -9.0 °F - -13.0 °F 83% 30.16 in 10.0 mi Calm Calm - N/A   Overcast
6:53 AM -5.1 °F - -9.0 °F 83% 30.17 in 10.0 mi Calm Calm - N/A   Overcast
7:53 AM -2.0 °F -10.1 °F -5.1 °F 87% 30.17 in 9.0 mi WSW 3.5 mph - N/A   Overcast
8:53 AM 1.0 °F -6.7 °F -2.0 °F 87% 30.19 in 10.0 mi West 3.5 mph - N/A   Overcast
9:53 AM 6.1 °F -0.9 °F 5.0 °F 95% 30.19 in 10.0 mi WSW 3.5 mph - N/A   Overcast
10:53 AM 9.0 °F - 7.0 °F 92% 30.19 in 10.0 mi Calm Calm - N/A   Overcast
11:53 AM 10.9 °F - 7.0 °F 84% 30.21 in 6.0 mi Calm Calm - 0.00 in Snow Light Snow
12:53 PM 12.9 °F 3.8 °F 6.1 °F 74% 30.20 in 9.0 mi West 5.8 mph - 0.00 in   Overcast
1:13 PM 14.0 °F 5.1 °F 6.8 °F 73% 30.08 in 10.0 mi WSW 5.8 mph - N/A   Overcast
1:30 PM 15.8 °F - 6.8 °F 68% 30.08 in 10.0 mi Calm Calm - N/A   Overcast
1:53 PM 14.0 °F 5.1 °F 5.0 °F 67% 30.18 in 10.0 mi WSW 5.8 mph - N/A   Overcast
2:08 PM 14.0 °F - 5.0 °F 67% 30.07 in 10.0 mi Calm Calm - N/A   Overcast
2:50 PM 15.8 °F 7.2 °F 6.8 °F 68% 30.07 in 10.0 mi West 5.8 mph - N/A   Overcast
3:53 PM 16.0 °F 3.6 °F 8.1 °F 71% 30.17 in 10.0 mi West 10.4 mph - 0.00 in   Overcast
4:53 PM 16.0 °F 5.3 °F 7.0 °F 68% 30.17 in 10.0 mi WSW 8.1 mph - N/A   Overcast
5:53 PM 15.1 °F 6.4 °F 7.0 °F 70% 30.17 in 10.0 mi WSW 5.8 mph - N/A   Overcast
6:53 PM 14.0 °F 6.5 °F 6.1 °F 71% 30.17 in 10.0 mi SSW 4.6 mph - N/A   Overcast
7:18 PM 14.0 °F 6.5 °F 6.8 °F 73% 30.06 in 10.0 mi South 4.6 mph - N/A   Overcast
7:53 PM 12.0 °F - 5.0 °F 73% 30.15 in 10.0 mi Calm Calm - N/A   Overcast
8:30 PM 10.4 °F - 3.2 °F 73% 30.05 in 10.0 mi Calm Calm - N/A   Scattered Clouds
8:53 PM 8.1 °F - 3.9 °F 83% 30.16 in 10.0 mi Calm Calm - N/A   Clear
9:53 PM 6.1 °F -0.9 °F 1.9 °F 83% 30.15 in 10.0 mi SSE 3.5 mph - N/A   Clear
10:53 PM 8.1 °F -2.0 °F 3.9 °F 83% 30.14 in 10.0 mi South 5.8 mph - N/A   Clear